• In Hungary
  • List of Countries
  • For 7 days
  • Water Temperature
  • Satellite Maps
  • Weather Map
  • News
  • Weather Widgets
  • user-avatar
    Login

    Hourly Weather Groniki

    Today, 22 September, Saturday

    Time Temperature Precipitation Wind Pressure Humidity
    00:00 +18°C° 0.1 mm 4 mps 725 mmHg 65%
    01:00 +18°C° 0 mm 3 mps 726 mmHg 66%
    02:00 +17°C° 1.3 mm 4 mps 726 mmHg 72%
    03:00 +14°C° 1.3 mm 4 mps 727 mmHg 79%
    04:00 +13°C° 1.3 mm 5 mps 728 mmHg 85%
    05:00 +13°C° 1.2 mm 4 mps 728 mmHg 85%
    06:00 +12°C° 1.2 mm 3 mps 729 mmHg 85%
    07:00 +12°C° 0 mm 2 mps 730 mmHg 84%
    08:00 +12°C° 0.4 mm 2 mps 730 mmHg 80%
    09:00 +13°C° 0.4 mm 2 mps 730 mmHg 77%
    10:00 +14°C° 0.4 mm 2 mps 730 mmHg 73%
    11:00 +14°C° 0 mm 3 mps 730 mmHg 65%
    12:00 +16°C° 0 mm 3 mps 730 mmHg 58%
    13:00 +17°C° 0 mm 4 mps 730 mmHg 51%
    14:00 +17°C° 0 mm 4 mps 730 mmHg 50%
    15:00 +17°C° 0 mm 4 mps 730 mmHg 50%
    16:00 +17°C° 0 mm 3 mps 730 mmHg 49%
    17:00 +16°C° 0 mm 3 mps 730 mmHg 53%
    18:00 +14°C° 0 mm 2 mps 730 mmHg 57%
    19:00 +13°C° 0 mm 2 mps 730 mmHg 61%
    20:00 +13°C° 0 mm 2 mps 730 mmHg 62%
    21:00 +13°C° 0 mm 2 mps 730 mmHg 62%
    22:00 +13°C° 0 mm 2 mps 730 mmHg 62%
    23:00 +12°C° 0.1 mm 3 mps 730 mmHg 65%

    Tomorrow, 23 September, Sunday

    Time Temperature Precipitation Wind Pressure Humidity
    00:00 +12°C° 0.1 mm 3 mps 730 mmHg 68%
    01:00 +11°C° 0.1 mm 3 mps 730 mmHg 71%
    02:00 +11°C° 0 mm 3 mps 730 mmHg 72%
    03:00 +11°C° 0 mm 3 mps 729 mmHg 74%
    04:00 +10°C° 0 mm 3 mps 729 mmHg 75%
    05:00 +11°C° 0 mm 3 mps 729 mmHg 74%
    06:00 +11°C° 0 mm 3 mps 729 mmHg 72%
    07:00 +11°C° 0 mm 3 mps 729 mmHg 71%
    08:00 +12°C° 0 mm 4 mps 729 mmHg 66%
    09:00 +13°C° 0 mm 4 mps 729 mmHg 61%
    10:00 +15°C° 0 mm 5 mps 729 mmHg 56%
    11:00 +14°C° 0 mm 5 mps 729 mmHg 60%
    12:00 +14°C° 0 mm 4 mps 728 mmHg 64%
    13:00 +14°C° 0 mm 4 mps 728 mmHg 68%
    14:00 +13°C° 0.3 mm 4 mps 727 mmHg 72%
    15:00 +13°C° 0.3 mm 4 mps 726 mmHg 75%
    16:00 +13°C° 0.3 mm 3 mps 726 mmHg 79%
    17:00 +13°C° 0.1 mm 4 mps 725 mmHg 78%
    18:00 +13°C° 0.1 mm 4 mps 724 mmHg 78%
    19:00 +13°C° 0.1 mm 5 mps 722 mmHg 77%
    20:00 +14°C° 0.1 mm 5 mps 722 mmHg 76%
    21:00 +14°C° 0.1 mm 6 mps 721 mmHg 74%
    22:00 +15°C° 0.1 mm 7 mps 720 mmHg 73%
    23:00 +15°C° 1.6 mm 7 mps 720 mmHg 78%

    Day after tomorrow, 24 September, Monday

    Time Temperature Precipitation Wind Pressure Humidity
    00:00 +16°C° 1.6 mm 7 mps 719 mmHg 83%
    01:00 +16°C° 1.6 mm 7 mps 719 mmHg 87%
    02:00 +14°C° 1.2 mm 7 mps 720 mmHg 87%
    03:00 +12°C° 1.2 mm 8 mps 721 mmHg 87%
    04:00 +10°C° 1.2 mm 9 mps 722 mmHg 87%
    05:00 +9°C° 0.4 mm 8 mps 723 mmHg 86%
    06:00 +8°C° 0.4 mm 7 mps 724 mmHg 85%
    07:00 +6°C° 0.4 mm 7 mps 726 mmHg 85%
    08:00 +8°C° 0.1 mm 7 mps 727 mmHg 80%
    09:00 +8°C° 0.1 mm 7 mps 728 mmHg 76%
    10:00 +9°C° 0.1 mm 8 mps 729 mmHg 72%
    11:00 +9°C° 0.2 mm 8 mps 729 mmHg 68%
    12:00 +10°C° 0.2 mm 8 mps 730 mmHg 63%
    13:00 +10°C° 0.2 mm 8 mps 731 mmHg 58%
    14:00 +10°C° 0.2 mm 8 mps 731 mmHg 59%
    15:00 +9°C° 0.2 mm 8 mps 731 mmHg 59%
    16:00 +9°C° 0.2 mm 7 mps 731 mmHg 59%
    17:00 +8°C° 0 mm 6 mps 732 mmHg 62%
    18:00 +7°C° 0 mm 5 mps 732 mmHg 64%
    19:00 +6°C° 0 mm 4 mps 733 mmHg 66%
    20:00 +6°C° 0 mm 4 mps 733 mmHg 69%
    21:00 +5°C° 0 mm 4 mps 734 mmHg 71%
    22:00 +5°C° 0 mm 4 mps 734 mmHg 73%
    23:00 +5°C° 0.1 mm 4 mps 734 mmHg 75%

    25 September, Tuesday

    Time Temperature Precipitation Wind Pressure Humidity
    00:00 +4°C° 0.1 mm 4 mps 735 mmHg 77%
    01:00 +4°C° 0.1 mm 3 mps 735 mmHg 78%
    02:00 +3°C° 0.1 mm 3 mps 736 mmHg 80%
    03:00 +3°C° 0.1 mm 3 mps 736 mmHg 81%
    04:00 +3°C° 0.1 mm 3 mps 736 mmHg 83%
    05:00 +3°C° 0 mm 3 mps 737 mmHg 82%
    06:00 +4°C° 0 mm 3 mps 738 mmHg 82%
    07:00 +4°C° 0 mm 3 mps 738 mmHg 82%
    08:00 +5°C° 0.1 mm 4 mps 739 mmHg 76%
    09:00 +6°C° 0.1 mm 4 mps 739 mmHg 69%
    10:00 +7°C° 0.1 mm 4 mps 740 mmHg 63%
    11:00 +8°C° 0.1 mm 5 mps 740 mmHg 59%
    12:00 +8°C° 0.1 mm 5 mps 740 mmHg 55%
    13:00 +9°C° 0.1 mm 5 mps 740 mmHg 51%
    14:00 +9°C° 0 mm 5 mps 740 mmHg 51%
    15:00 +9°C° 0 mm 5 mps 740 mmHg 51%
    16:00 +10°C° 0 mm 4 mps 741 mmHg 50%
    17:00 +8°C° 0 mm 3 mps 741 mmHg 55%
    18:00 +7°C° 0 mm 3 mps 741 mmHg 60%
    19:00 +6°C° 0 mm 2 mps 742 mmHg 64%
    20:00 +5°C° 0 mm 2 mps 742 mmHg 66%
    21:00 +6°C° 0 mm 1 mps 743 mmHg 68%
    22:00 +5°C° 0 mm 1 mps 743 mmHg 70%
    23:00 +5°C° 0 mm 1 mps 743 mmHg 71%

    26 September, Wednesday

    Time Temperature Precipitation Wind Pressure Humidity
    00:00 +5°C° 0 mm 1 mps 743 mmHg 72%
    01:00 +4°C° 0 mm 1 mps 743 mmHg 73%
    02:00 +4°C° 0 mm 1 mps 743 mmHg 74%
    03:00 +4°C° 0 mm 1 mps 743 mmHg 74%
    04:00 +4°C° 0 mm 1 mps 743 mmHg 74%
    05:00 +4°C° 0 mm 1 mps 743 mmHg 71%
    06:00 +5°C° 0 mm 1 mps 743 mmHg 68%
    07:00 +6°C° 0 mm 1 mps 743 mmHg 65%
    08:00 +7°C° 0 mm 2 mps 743 mmHg 57%
    09:00 +9°C° 0 mm 3 mps 743 mmHg 49%
    10:00 +11°C° 0 mm 3 mps 743 mmHg 41%
    11:00 +12°C° 0 mm 4 mps 742 mmHg 40%
    12:00 +13°C° 0 mm 4 mps 741 mmHg 39%
    13:00 +14°C° 0 mm 5 mps 741 mmHg 39%
    14:00 +14°C° 0 mm 5 mps 740 mmHg 41%
    15:00 +13°C° 0 mm 4 mps 740 mmHg 44%
    16:00 +13°C° 0 mm 4 mps 739 mmHg 46%
    17:00 +11°C° 0 mm 4 mps 739 mmHg 52%
    18:00 +10°C° 0 mm 4 mps 739 mmHg 57%
    19:00 +8°C° 0 mm 3 mps 739 mmHg 62%
    20:00 +8°C° 0 mm 3 mps 738 mmHg 62%
    21:00 +7°C° 0 mm 3 mps 738 mmHg 61%
    22:00 +7°C° 0 mm 3 mps 738 mmHg 60%
    23:00 +7°C° 0 mm 3 mps 738 mmHg 60%

    27 September, Thursday

    Time Temperature Precipitation Wind Pressure Humidity
    00:00 +7°C° 0 mm 3 mps 738 mmHg 60%
    01:00 +5°C° 0 mm 3 mps 737 mmHg 60%
    02:00 +5°C° 0 mm 3 mps 737 mmHg 60%
    03:00 +5°C° 0 mm 3 mps 736 mmHg 60%
    04:00 +5°C° 0 mm 3 mps 736 mmHg 61%
    05:00 +5°C° 0 mm 3 mps 736 mmHg 59%
    06:00 +7°C° 0 mm 3 mps 736 mmHg 58%
    07:00 +8°C° 0 mm 3 mps 736 mmHg 57%
    08:00 +10°C° 0 mm 3 mps 736 mmHg 52%
    09:00 +13°C° 0 mm 3 mps 735 mmHg 47%
    10:00 +15°C° 0 mm 4 mps 735 mmHg 43%
    11:00 +17°C° 0 mm 4 mps 735 mmHg 41%
    12:00 +18°C° 0 mm 4 mps 734 mmHg 39%
    13:00 +19°C° 0 mm 4 mps 734 mmHg 37%
    14:00 +19°C° 0 mm 4 mps 734 mmHg 40%
    15:00 +18°C° 0 mm 3 mps 733 mmHg 44%
    16:00 +18°C° 0 mm 3 mps 733 mmHg 47%
    17:00 +16°C° 0 mm 3 mps 733 mmHg 52%
    18:00 +14°C° 0 mm 3 mps 732 mmHg 58%
    19:00 +13°C° 0 mm 2 mps 732 mmHg 63%
    20:00 +12°C° 0 mm 2 mps 732 mmHg 63%
    21:00 +12°C° 0 mm 2 mps 732 mmHg 63%
    22:00 +12°C° 0 mm 2 mps 732 mmHg 63%
    23:00 +12°C° 0 mm 2 mps 732 mmHg 63%
    Show more